Regional Weather Roundup
Issued by NWS Goodland, KS

Home | Current Version | Previous Version | Text Only | Print | Product List | Glossary Off
Versions: 1 2 3 4 5 6 7 8 9 10 11 12 13 14 15 16 17 18 19 20 21 22 23 24 25 26 27 28 29 30 31 32 33 34 35 36 37 38 39 40 41 42 43 44 45 46 47 48 49 50

000
ASUS43 KGLD 261608
RWRGLD

GOODLAND FORECAST AREA HOURLY WEATHER ROUNDUP
NATIONAL WEATHER SERVICE GOODLAND KS
1000 AM MDT TUE MAY 26 2015

...OFFICIAL OBSERVATIONS...

CITY           SKY/WX    TMP DP  RH WIND       PRES   REMARKS
GOODLAND KS    SUNNY     64  51  62 N13       30.01S
HILL CITY KS   MOSUNNY   67  55  65 VRB6      29.97R
IMPERIAL NEB   CLOUDY    59  52  77 NW7       30.01R
MCCOOK NEB     PTSUNNY   64  51  62 NW10      29.97S
AKRON CO       PTSUNNY   59  49  69 N8        30.05R
BURLINGTON CO  SUNNY     64  50  60 NW7       30.04S
LIMON CO       CLOUDY    58  45  62 N3        30.09R
$$

...UNOFFICIAL OBSERVATIONS...

CITY           SKY/WX    TMP DP  RH WIND       PRES   REMARKS
COLBY KS       PTSUNNY   66  55  68 NW5       30.02R
GOVE KS          N/A     67  32  27 MISG        N/A
LENORA KS        N/A     63  32  31 MISG        N/A
NORTON KS      PTSUNNY   68  50  52 NW9       29.95R
SHARON SPRINGS   N/A     66  53  64 MISG        N/A
KIT CARSON CO    N/A     63  52  67 MISG        N/A
$$



USA.gov is the U.S. government's official web portal to all federal, state and local government web resources and services.